• In Netherlands
  • List of Countries
  • For 7 days
  • Water Temperature
  • Satellite Maps
  • Weather Map
  • Weather Widgets
  • user-avatar
    Login

    Hourly Weather Naftalan

    Today, 23 March, Thursday

    Time Temperature Precipitation Wind Pressure Humidity
    00:00 +8°C° 0 mm 3 mps 766 mmHg 92%
    01:00 +8°C° 0 mm 3 mps 766 mmHg 92%
    02:00 +7°C° 0 mm 2 mps 766 mmHg 93%
    03:00 +8°C° 0 mm 1 mps 766 mmHg 95%
    04:00 +8°C° 0.1 mm 1 mps 767 mmHg 95%
    05:00 +7°C° 0.1 mm 2 mps 767 mmHg 95%
    06:00 +7°C° 0.1 mm 2 mps 767 mmHg 95%
    07:00 +8°C° 0.3 mm 2 mps 767 mmHg 92%
    08:00 +9°C° 0.3 mm 2 mps 767 mmHg 88%
    09:00 +10°C° 0.3 mm 2 mps 767 mmHg 84%
    10:00 +10°C° 0.6 mm 2 mps 767 mmHg 84%
    11:00 +10°C° 0.6 mm 2 mps 767 mmHg 83%
    12:00 +10°C° 0.6 mm 2 mps 767 mmHg 82%
    13:00 +11°C° 0.1 mm 3 mps 767 mmHg 78%
    14:00 +11°C° 0.1 mm 3 mps 767 mmHg 74%
    15:00 +12°C° 0.1 mm 3 mps 767 mmHg 69%
    16:00 +11°C° 0.1 mm 3 mps 767 mmHg 75%
    17:00 +10°C° 0.1 mm 3 mps 768 mmHg 80%
    18:00 +9°C° 0.1 mm 3 mps 768 mmHg 85%
    19:00 +9°C° 0.2 mm 3 mps 769 mmHg 87%
    20:00 +8°C° 0.2 mm 2 mps 769 mmHg 90%
    21:00 +8°C° 0.2 mm 2 mps 770 mmHg 93%
    22:00 +8°C° 0.2 mm 2 mps 770 mmHg 93%
    23:00 +8°C° 0.2 mm 2 mps 770 mmHg 94%

    Tomorrow, 24 March, Friday

    Time Temperature Precipitation Wind Pressure Humidity
    00:00 +7°C° 0.2 mm 2 mps 770 mmHg 95%
    01:00 +7°C° 0.2 mm 3 mps 770 mmHg 94%
    02:00 +7°C° 0.2 mm 3 mps 770 mmHg 93%
    03:00 +6°C° 0.2 mm 4 mps 770 mmHg 93%
    04:00 +6°C° 0.1 mm 4 mps 771 mmHg 92%
    05:00 +6°C° 0.1 mm 4 mps 771 mmHg 91%
    06:00 +6°C° 0.1 mm 4 mps 771 mmHg 90%
    07:00 +7°C° 0 mm 5 mps 771 mmHg 83%
    08:00 +8°C° 0 mm 5 mps 772 mmHg 76%
    09:00 +9°C° 0 mm 6 mps 772 mmHg 69%
    10:00 +10°C° 0 mm 5 mps 772 mmHg 65%
    11:00 +12°C° 0 mm 5 mps 772 mmHg 61%
    12:00 +13°C° 0 mm 4 mps 771 mmHg 57%
    13:00 +13°C° 0 mm 4 mps 771 mmHg 57%
    14:00 +13°C° 0 mm 5 mps 771 mmHg 56%
    15:00 +13°C° 0 mm 5 mps 771 mmHg 56%
    16:00 +12°C° 0 mm 4 mps 771 mmHg 63%
    17:00 +10°C° 0 mm 4 mps 771 mmHg 70%
    18:00 +9°C° 0 mm 3 mps 772 mmHg 77%
    19:00 +8°C° 0 mm 3 mps 772 mmHg 81%
    20:00 +8°C° 0 mm 2 mps 772 mmHg 85%
    21:00 +7°C° 0 mm 2 mps 772 mmHg 89%
    22:00 +7°C° 0 mm 2 mps 772 mmHg 90%
    23:00 +6°C° 0 mm 2 mps 772 mmHg 91%

    Day after tomorrow, 25 March, Saturday

    Time Temperature Precipitation Wind Pressure Humidity
    00:00 +6°C° 0 mm 2 mps 771 mmHg 92%
    01:00 +5°C° 0 mm 2 mps 771 mmHg 92%
    02:00 +5°C° 0 mm 2 mps 771 mmHg 93%
    03:00 +5°C° 0 mm 2 mps 770 mmHg 93%
    04:00 +5°C° 0 mm 2 mps 770 mmHg 93%
    05:00 +5°C° 0 mm 2 mps 770 mmHg 93%
    06:00 +5°C° 0 mm 2 mps 770 mmHg 93%
    07:00 +7°C° 0 mm 2 mps 770 mmHg 82%
    08:00 +9°C° 0 mm 3 mps 770 mmHg 72%
    09:00 +12°C° 0 mm 3 mps 770 mmHg 61%
    10:00 +13°C° 0 mm 3 mps 769 mmHg 55%
    11:00 +14°C° 0 mm 4 mps 769 mmHg 49%
    12:00 +15°C° 0 mm 4 mps 768 mmHg 43%
    13:00 +15°C° 0 mm 5 mps 768 mmHg 44%
    14:00 +15°C° 0 mm 5 mps 767 mmHg 45%
    15:00 +15°C° 0 mm 5 mps 766 mmHg 46%
    16:00 +13°C° 0 mm 5 mps 766 mmHg 54%
    17:00 +12°C° 0 mm 5 mps 766 mmHg 62%
    18:00 +9°C° 0 mm 5 mps 766 mmHg 70%
    19:00 +8°C° 0 mm 5 mps 766 mmHg 74%
    20:00 +8°C° 0 mm 5 mps 766 mmHg 78%
    21:00 +7°C° 0 mm 5 mps 766 mmHg 82%
    22:00 +7°C° 0 mm 5 mps 766 mmHg 85%
    23:00 +6°C° 0 mm 4 mps 766 mmHg 88%

    26 March, Sunday

    Time Temperature Precipitation Wind Pressure Humidity
    00:00 +6°C° 0 mm 4 mps 765 mmHg 91%
    01:00 +6°C° 0 mm 4 mps 765 mmHg 92%
    02:00 +5°C° 0 mm 3 mps 765 mmHg 92%
    03:00 +5°C° 0 mm 3 mps 765 mmHg 92%
    04:00 +5°C° 0 mm 3 mps 765 mmHg 92%
    05:00 +5°C° 0 mm 3 mps 765 mmHg 92%
    06:00 +5°C° 0 mm 3 mps 765 mmHg 92%
    07:00 +8°C° 0 mm 3 mps 765 mmHg 82%
    08:00 +11°C° 0 mm 3 mps 765 mmHg 72%
    09:00 +13°C° 0 mm 3 mps 765 mmHg 61%
    10:00 +16°C° 0 mm 3 mps 765 mmHg 56%
    11:00 +17°C° 0 mm 2 mps 765 mmHg 51%
    12:00 +19°C° 0 mm 2 mps 764 mmHg 46%
    13:00 +19°C° 0 mm 3 mps 764 mmHg 45%
    14:00 +19°C° 0 mm 3 mps 764 mmHg 44%
    15:00 +20°C° 0 mm 3 mps 763 mmHg 44%
    16:00 +18°C° 0 mm 4 mps 764 mmHg 53%
    17:00 +15°C° 0 mm 4 mps 764 mmHg 62%
    18:00 +13°C° 0 mm 4 mps 764 mmHg 71%
    19:00 +12°C° 0 mm 4 mps 765 mmHg 72%
    20:00 +11°C° 0 mm 4 mps 765 mmHg 73%
    21:00 +10°C° 0 mm 4 mps 765 mmHg 74%
    22:00 +10°C° 0 mm 3 mps 765 mmHg 75%
    23:00 +9°C° 0 mm 2 mps 765 mmHg 77%

    27 March, Monday

    Time Temperature Precipitation Wind Pressure Humidity
    00:00 +9°C° 0 mm 2 mps 765 mmHg 78%
    01:00 +8°C° 0 mm 2 mps 765 mmHg 80%
    02:00 +8°C° 0 mm 2 mps 765 mmHg 82%
    03:00 +8°C° 0 mm 2 mps 765 mmHg 84%
    04:00 +9°C° 0 mm 1 mps 765 mmHg 84%
    05:00 +9°C° 0 mm 1 mps 765 mmHg 84%
    06:00 +8°C° 0 mm 1 mps 765 mmHg 85%
    07:00 +11°C° 0 mm 1 mps 766 mmHg 75%
    08:00 +14°C° 0 mm 1 mps 766 mmHg 66%
    09:00 +16°C° 0 mm 1 mps 766 mmHg 56%
    10:00 +18°C° 0 mm 1 mps 766 mmHg 53%
    11:00 +19°C° 0 mm 2 mps 765 mmHg 50%
    12:00 +20°C° 0 mm 3 mps 765 mmHg 47%
    13:00 +20°C° 0 mm 3 mps 764 mmHg 48%
    14:00 +20°C° 0 mm 4 mps 764 mmHg 49%
    15:00 +20°C° 0 mm 4 mps 764 mmHg 49%
    16:00 +18°C° 0 mm 4 mps 764 mmHg 55%
    17:00 +15°C° 0 mm 4 mps 764 mmHg 61%
    18:00 +13°C° 0 mm 4 mps 764 mmHg 67%
    19:00 +12°C° 0 mm 3 mps 764 mmHg 70%
    20:00 +11°C° 0 mm 3 mps 764 mmHg 73%
    21:00 +10°C° 0 mm 3 mps 764 mmHg 75%
    22:00 +10°C° 0 mm 3 mps 764 mmHg 77%
    23:00 +10°C° 0 mm 2 mps 764 mmHg 79%

    28 March, Tuesday

    Time Temperature Precipitation Wind Pressure Humidity
    00:00 +9°C° 0 mm 2 mps 764 mmHg 81%
    01:00 +9°C° 0 mm 2 mps 763 mmHg 82%
    02:00 +9°C° 0 mm 2 mps 763 mmHg 83%
    03:00 +9°C° 0 mm 1 mps 763 mmHg 84%
    04:00 +9°C° 0 mm 1 mps 763 mmHg 85%
    05:00 +9°C° 0 mm 1 mps 763 mmHg 85%
    06:00 +9°C° 0 mm 1 mps 764 mmHg 85%
    07:00 +12°C° 0 mm 1 mps 763 mmHg 77%
    08:00 +14°C° 0 mm 2 mps 763 mmHg 68%
    09:00 +17°C° 0 mm 2 mps 763 mmHg 59%
    10:00 +18°C° 0 mm 2 mps 763 mmHg 54%
    11:00 +20°C° 0 mm 2 mps 762 mmHg 48%
    12:00 +23°C° 0 mm 2 mps 762 mmHg 43%
    13:00 +23°C° 0 mm 2 mps 761 mmHg 42%
    14:00 +22°C° 0 mm 3 mps 761 mmHg 41%
    15:00 +24°C° 0 mm 3 mps 760 mmHg 40%
    16:00 +20°C° 0 mm 3 mps 760 mmHg 49%
    17:00 +18°C° 0 mm 4 mps 760 mmHg 57%
    18:00 +15°C° 0 mm 4 mps 760 mmHg 66%
    19:00 +14°C° 0 mm 4 mps 761 mmHg 65%
    20:00 +13°C° 0 mm 4 mps 761 mmHg 63%
    21:00 +12°C° 0 mm 4 mps 761 mmHg 62%
    22:00 +12°C° 0 mm 3 mps 761 mmHg 63%
    23:00 +12°C° 0 mm 3 mps 761 mmHg 64%
    Show more